Ana Sayfa
METAR-TAF:

METAR-TAF

Havaalanları :

Giddings-Lee County Airport

Giddings, Teksas, Amerika Birleşik Devletleri

Enlem: 30-10-09N, Boylam: 096-58-48W, yükseklik: 148 m

Güncel hava durumu gözlemi

Rapor saat 21:15 UTC de 21 dakika önce yapıldı.
Sakin rüzgar
Sıcaklık 23°C
Nem 25%
Basınç 1009 hPa
Görüş mesafesi: 16.1 km
Açık gökyüzü

METAR: KGYB 132115Z AUTO 00000KT 10SM CLR 23/02 A2981 RMK AO2 T02270016

Saat: 15:36 (21:36 UTC)


TAF: eksik

4.000'den fazla havaalanı için hava durumu gözlemleri ve tahminleri (METAR ve TAF raporları).

Kullanılabilir istasyonlar harita üzerinde sarı ve kırmızı noktalarla gösterilir.

İstasyonun adını görmek için fareyi noktanın üzerinde gezdirin.

Sonrasında hava gözlem ve tahminlerini görmek için tıklayın.

Haritayı değiştirmek için: yaklaştırmak için siyah artı işaretli yeşil düğmeye ve uzaklaştırmak için de eksi işaretli düğmeye hızla tıklayın; bitişik haritalar için yeşil okları kullanın.


METAR-TAF: